Location: Eenumerhoogte
(53.3420°N, 6.7843°E)
Time: 15:40:24
(UTC+00:00)

Cosmos 2360 Rocket - Pass Details

Date: 15 May 2026
Orbit: 831 x 845 km, 71.0° (Epoch: 10 June)

Event Time Altitude Azimuth Distance (km) Brightness Sun altitude
Rises 19:59:53 0° 328° (NNW) 3,417 7.2 -4.8°
Reaches altitude 10° 20:02:25 10° 333° (NNW) 2,479 6.0 -5.1°
Maximum altitude 20:07:59 52° 50° (NE) 1,043 2.7 -5.7°
Drops below altitude 10° 20:13:30 10° 127° (SE) 2,464 4.0 -6.3°
Enters shadow 20:14:05 - 129° (SE) 2,678 4.1 -6.3°
